Weather History for KGUC - June, 2013

Change the Weather History Date:

Saturday, June 8, 2013

  Actual Average Record
Temperature  
Mean Temperature 58 °F -  
Max Temperature 78 °F 69 °F 82 °F (2002)
Min Temperature 37 °F 35 °F 26 °F (2007)
Degree Days  
Heating Degree Days 8    
Growing Degree Days 8 (Base 50)    
Moisture  
Dew Point 31 °F    
Average Humidity 39    
Maximum Humidity 76    
Minimum Humidity 16    
Precipitation  
Precipitation 0.00 in - - ()
Sea Level Pressure  
Sea Level Pressure 30.14 in    
Wind  
Wind Speed 4 mph (NW)    
Max Wind Speed 15 mph    
Max Gust Speed 26 mph    
Visibility 10 miles    
Events      
Averages and records for this station are not official NWS values.
T = Trace of Precipitation, MM = Missing Value Source: NWS Daily Summary

Daily Weather History Graph

Daily Weather History Graph

Search for Another Location

Airport or City:

Trip Planner

Search our weather history database for the weather conditions in past years. The results will help you decide how hot, cold, wet, or windy it might be!

Date:

Astronomy

Jun. 08, 2013 Rise Set
Actual Time 5:43 AM MDT 8:30 PM MDT
Civil Twilight 5:11 AM MDT 9:02 PM MDT
Nautical Twilight 4:32 AM MDT 9:41 PM MDT
Astronomical Twilight 3:47 AM MDT 10:26 PM MDT
Moon 5:52 AM MDT (6/8) 8:36 PM MDT (6/8)
Length of Visible Light 15h 50m
Length of Day
14h 47m
New Moon, 0% of the Moon is Illuminated
Jun 8
New Moon
Jun 16
First Quarter
Jun 23
Full
Jun 29
Last Quarter
Jul 8
New

Hourly Weather History & Observations

Time (MDT) Temp. Windchill Dew Point Humidity Pressure Visibility Wind Dir Wind Speed Gust Speed Precip Events Conditions
12:15 AM 53.6 °F - 32.0 °F 44% 30.15 in 10.0 mi Calm Calm - N/A   Clear
12:55 AM 48.2 °F - 33.8 °F 58% 30.14 in 10.0 mi Calm Calm - N/A   Clear
1:15 AM 46.4 °F - 35.6 °F 66% 30.14 in 10.0 mi Calm Calm - N/A   Clear
1:35 AM 48.2 °F - 33.8 °F 58% 30.14 in 10.0 mi Calm Calm - N/A   Clear
1:55 AM 46.4 °F - 33.8 °F 62% 30.14 in 10.0 mi Calm Calm - N/A   Clear
2:15 AM 44.6 °F - 30.2 °F 57% 30.13 in 10.0 mi Calm Calm - N/A   Clear
2:35 AM 44.6 °F - 32.0 °F 61% 30.13 in 10.0 mi North - - N/A   Clear
2:55 AM 44.6 °F - 30.2 °F 57% 30.14 in 10.0 mi Calm Calm - N/A   Clear
3:15 AM 42.8 °F 40.1 °F 32.0 °F 66% 30.13 in 10.0 mi North 4.6 mph - N/A   Clear
3:35 AM 41.0 °F - 33.8 °F 76% 30.14 in 10.0 mi Calm Calm - N/A   Clear
3:55 AM 41.0 °F - 33.8 °F 76% 30.14 in 10.0 mi Calm Calm - N/A   Clear
4:15 AM 41.0 °F 39.0 °F 30.2 °F 65% 30.14 in 10.0 mi NNW 3.5 mph - N/A   Clear
4:35 AM 41.0 °F 39.0 °F 28.4 °F 61% 30.14 in 10.0 mi ENE 3.5 mph - N/A   Clear
4:55 AM 39.2 °F - 30.2 °F 70% 30.15 in 10.0 mi Calm Calm - N/A   Clear
5:15 AM 39.2 °F - 30.2 °F 70% 30.15 in 10.0 mi Calm Calm - N/A   Clear
5:35 AM 37.4 °F - 30.2 °F 75% 30.16 in 10.0 mi Calm Calm - N/A   Clear
5:55 AM 39.2 °F - 30.2 °F 70% 30.16 in 10.0 mi Calm Calm - N/A   Clear
6:15 AM 39.2 °F - 30.2 °F 70% 30.16 in 10.0 mi Calm Calm - N/A   Clear
6:35 AM 39.2 °F - 30.2 °F 70% 30.16 in 10.0 mi Calm Calm - N/A   Clear
6:55 AM 42.8 °F - 33.8 °F 70% 30.17 in 10.0 mi Calm Calm - N/A   Clear
7:15 AM 42.8 °F - 30.2 °F 61% 30.17 in 10.0 mi Calm Calm - N/A   Clear
7:35 AM 44.6 °F - 30.2 °F 57% 30.17 in 10.0 mi Calm Calm - N/A   Clear
7:55 AM 48.2 °F - 30.2 °F 50% 30.17 in 10.0 mi Calm Calm - N/A   Clear
8:15 AM 50.0 °F - 32.0 °F 50% 30.17 in 10.0 mi ENE 4.6 mph - N/A   Clear
8:35 AM 51.8 °F - 32.0 °F 47% 30.17 in 10.0 mi Calm Calm - N/A   Clear
8:55 AM 53.6 °F - 32.0 °F 44% 30.17 in 10.0 mi Calm Calm - N/A   Clear
9:15 AM 55.4 °F - 32.0 °F 41% 30.16 in 10.0 mi NNE 4.6 mph - N/A   Clear
9:35 AM 57.2 °F - 30.2 °F 36% 30.16 in 10.0 mi Calm Calm - N/A   Clear
9:55 AM 60.8 °F - 32.0 °F 34% 30.15 in 10.0 mi Calm Calm - N/A   Clear
10:15 AM 62.6 °F - 33.8 °F 34% 30.14 in 10.0 mi SW 3.5 mph - N/A   Clear
10:35 AM 66.2 °F - 35.6 °F 32% 30.13 in 10.0 mi WSW 6.9 mph - N/A   Clear
10:55 AM 69.8 °F - 37.4 °F 31% 30.13 in 10.0 mi SW 11.5 mph - N/A   Clear
11:15 AM 69.8 °F - 33.8 °F 27% 30.13 in 10.0 mi WNW 3.5 mph - N/A   Clear
11:35 AM 71.6 °F - 35.6 °F 27% 30.13 in 10.0 mi NE 5.8 mph - N/A   Partly Cloudy
11:55 AM 71.6 °F - 35.6 °F 27% 30.13 in 10.0 mi NNE 8.1 mph - N/A   Partly Cloudy
12:15 PM 71.6 °F - 33.8 °F 25% 30.12 in 10.0 mi East 6.9 mph - N/A   Mostly Cloudy
12:35 PM 71.6 °F - 35.6 °F 27% 30.12 in 10.0 mi ESE 5.8 mph - N/A   Mostly Cloudy
12:55 PM 73.4 °F - 33.8 °F 23% 30.12 in 10.0 mi North 5.8 mph - N/A   Mostly Cloudy
1:15 PM 73.4 °F - 32.0 °F 22% 30.12 in 10.0 mi WSW 8.1 mph - N/A   Mostly Cloudy
1:35 PM 75.2 °F - 28.4 °F 18% 30.11 in 10.0 mi NNW 8.1 mph - N/A   Scattered Clouds
1:55 PM 75.2 °F - 30.2 °F 19% 30.11 in 10.0 mi West 8.1 mph 16.1 mph N/A   Scattered Clouds
2:15 PM 75.2 °F - 28.4 °F 18% 30.11 in 10.0 mi West 9.2 mph 20.7 mph N/A   Scattered Clouds
2:35 PM 77.0 °F - 32.0 °F 19% 30.11 in 10.0 mi West 12.7 mph 24.2 mph N/A   Mostly Cloudy
2:55 PM 77.0 °F - 30.2 °F 18% 30.11 in 10.0 mi West 11.5 mph 26.5 mph N/A   Mostly Cloudy
3:15 PM 77.0 °F - 28.4 °F 17% 30.11 in 10.0 mi West 6.9 mph 23.0 mph N/A   Mostly Cloudy
3:35 PM 78.8 °F - 30.2 °F 17% 30.11 in 10.0 mi WSW 13.8 mph 24.2 mph N/A   Mostly Cloudy
3:55 PM 77.0 °F - 28.4 °F 17% 30.11 in 10.0 mi West 12.7 mph 20.7 mph N/A   Overcast
4:15 PM 75.2 °F - 30.2 °F 19% 30.11 in 10.0 mi WSW 13.8 mph 19.6 mph N/A   Overcast
4:35 PM 77.0 °F - 33.8 °F 21% 30.12 in 10.0 mi WNW 13.8 mph 26.5 mph N/A   Scattered Clouds
4:55 PM 77.0 °F - 30.2 °F 18% 30.12 in 10.0 mi WNW 8.1 mph 17.3 mph N/A   Clear
5:15 PM 77.0 °F - 30.2 °F 18% 30.12 in 10.0 mi WNW 13.8 mph 19.6 mph N/A   Partly Cloudy
5:35 PM 78.8 °F - 28.4 °F 16% 30.12 in 10.0 mi WNW 13.8 mph 23.0 mph N/A   Mostly Cloudy
5:55 PM 77.0 °F - 26.6 °F 16% 30.12 in 10.0 mi NNW 15.0 mph 20.7 mph N/A   Mostly Cloudy
6:15 PM 77.0 °F - 28.4 °F 17% 30.12 in 10.0 mi NNW 15.0 mph 19.6 mph N/A   Scattered Clouds
6:35 PM 75.2 °F - 28.4 °F 18% 30.13 in 10.0 mi NNW 9.2 mph 18.4 mph N/A   Mostly Cloudy
6:55 PM 75.2 °F - 28.4 °F 18% 30.13 in 10.0 mi NNW 9.2 mph 16.1 mph N/A   Scattered Clouds
7:15 PM 75.2 °F - 28.4 °F 18% 30.14 in 10.0 mi NW 11.5 mph - N/A   Scattered Clouds
7:35 PM 75.2 °F - 28.4 °F 18% 30.15 in 10.0 mi NW 13.8 mph 19.6 mph N/A   Mostly Cloudy
7:55 PM 73.4 °F - 28.4 °F 19% 30.15 in 10.0 mi NW 8.1 mph - N/A   Scattered Clouds
8:15 PM 71.6 °F - 28.4 °F 20% 30.16 in 10.0 mi NW 9.2 mph - N/A   Clear
8:35 PM 69.8 °F - 28.4 °F 21% 30.16 in 10.0 mi NNW 9.2 mph - N/A   Clear
9:15 PM 64.4 °F - 30.2 °F 28% 30.17 in 10.0 mi NNW 10.4 mph - N/A   Clear
9:35 PM 62.6 °F - 30.2 °F 30% 30.18 in 10.0 mi NNW 8.1 mph - N/A   Clear
9:55 PM 62.6 °F - 33.8 °F 34% 30.19 in 10.0 mi North 8.1 mph - N/A   Clear
10:15 PM 60.8 °F - 33.8 °F 36% 30.20 in 10.0 mi NNW 6.9 mph - N/A   Clear
10:55 PM 57.2 °F - 32.0 °F 38% 30.20 in 10.0 mi NNE 3.5 mph - N/A   Clear
11:35 PM 55.4 °F - 33.8 °F 44% 30.21 in 10.0 mi Calm Calm - N/A   Clear
11:55 PM 55.4 °F - 32.0 °F 41% 30.21 in 10.0 mi Calm Calm - N/A   Clear